Temperature
14 15 15 15 15 16 16 16 16 16 17 17 17 17 17 17 17 17 17 17 17 17 17 17 17 17 17 17 17 16 16 16 16 16 16 16 16 16 16 15 15 15 15
14 14 15 15 15 16 16 16 16 16 16 17 17 17 17 17 17 17 17 17 17 17 17 17 16 17 17 17 16 16 16 16 16 16 16 16 16 15 15 15 15 15 15
14 14 15 15 15 15 16 16 16 16 16 16 16 16 16 16 16 17 17 17 17 16 16 16 16 16 16 16 16 16 16 16 16 16 16 15 15 15 15 15 15 15 15
14 14 14 15 15 15 15 16 16 16 16 16 16 16 16 16 16 16 16 16 16 16 16 16 16 16 16 16 16 16 16 16 16 16 15 15 15 15 15 15 15 15 15
13 13 14 15 15 15 15 15 15 16 16 16 16 16 16 16 16 16 16 16 16 16 16 16 16 16 16 16 16 16 16 16 16 15 15 15 15 15 15 15 15 15 14
13 13 14 14 14 15 15 15 15 15 15 15 15 15 15 15 15 15 15 15 15 16 16 16 16 16 16 16 16 16 16 16 15 15 15 15 15 15 15 15 15 14 14
13 13 14 14 14 14 14 15 15 15 15 15 15 15 15 15 15 15 15 15 15 15 15 15 15 15 15 15 15 15 15 15 15 15 15 15 15 15 15 15 14 14 14
13 13 13 14 14 14 14 14 14 14 14 14 14 15 15 15 15 15 15 15 15 15 15 15 15 15 15 15 15 15 15 15 15 14 15 14 15 15 15 14 14 14 14
12 13 13 13 13 13 13 14 14 14 14 14 14 14 14 14 14 14 14 14 14 14 15 15 15 15 15 15 15 15 15 15 14 14 14 14 14 14 14 14 14 14 14
12 12 12 13 13 13 13 13 13 13 13 13 14 14 14 14 14 14 14 14 14 14 14 14 14 14 14 14 15 15 15 14 14 14 14 14 14 14 14 14 14 14 14
12 12 12 12 12 12 12 12 12 13 13 13 13 13 13 13 13 13 13 13 14 14 14 14 14 14 14 14 14 14 14 14 13 13 13 14 14 14 13 13 13 14 13
12 12 12 12 12 12 12 12 12 12 12 12 12 12 12 12 13 13 13 13 13 13 13 13 13 13 13 13 13 13 13 13 13 13 13 13 13 13 13 13 13 13 13
11 12 12 12 12 12 12 12 12 12 12 12 12 12 12 12 12 12 12 12 13 13 13 13 13 13 13 13 13 13 13 12 12 12 12 13 13 13 13 13 13 13 13
11 11 11 11 11 11 11 11 11 11 11 11 11 11 11 11 11 11 11 12 12 12 12 12 12 12 12 12 12 12 12 12 12 12 12 12 12 12 12 12 12 12 12
11 11 11 11 11 11 11 11 11 11 11 11 11 11 11 11 11 11 11 11 11 11 11 11 12 12 12 12 11 11 11 11 11 11 11 12 12 12 12 12 12 12 12
11 11 11 11 11 10 10 10 10 10 10 10 10 10 10 10 10 10 10 10 10 10 10 11 11 11 11 11 11 11 11 11 11 11 11 11 11 11 11 11 11 12 12
11 11 10 10 10 10 10 10 10 10 10 10 10 10 10 10 10 10 9 9 9 10 10 10 10 10 10 10 10 10 10 10 10 10 10 10 11 11 11 11 11 11 11
10 10 10 10 10 10 10 10 9 9 9 9 9 9 9 9 9 9 9 9 9 9 9 9 9 9 9 9 10 10 10 10 10 10 10 10 10 10 10 10 10 11 11
10 10 10 10 10 10 9 9 9 9 9 9 9 9 9 9 9 9 9 8 8 8 8 8 8 8 9 9 9 9 9 9 9 9 9 9 9 9 9 10 10 10 10
10 10 10 10 9 9 9 9 9 9 9 9 9 9 8 8 8 8 8 8 8 8 8 8 8 8 8 8 8 8 8 8 8 8 8 9 9 9 9 9 9 9 9
10 10 9 9 9 9 9 9 9 9 8 8 8 8 8 8 8 8 7 7 7 7 7 7 7 7 7 7 7 7 7 7 7 8 8 8 8 8 8 8 8 8 8
9 9 9 9 9 9 9 9 9 8 8 8 8 8 8 8 7 7 7 7 7 7 7 7 7 6 6 6 6 5 6 7 7 7 7 7 7 7 8 8 8 8 8
9 9 9 8 8 8 8 8 8 8 8 8 8 8 7 7 7 7 7 6 6 6 6 6 6 6 5 6 5 5 5 6 6 6 7 7 7 7 7 7 7 7 7
9 9 9 8 8 8 8 8 8 8 7 7 7 7 7 7 7 7 6 6 6 6 6 6 5 5 5 5 5 5 5 5 5 5 6 6 6 6 6 6 7 7 7
9 9 9 8 8 8 8 8 7 7 7 7 7 7 7 6 6 6 6 6 6 6 5 5 5 5 5 4 4 4 4 4 4 4 5 5 6 6 6 6 6 6 6
8 8 8 8 8 8 8 7 7 7 7 7 7 6 6 6 6 6 6 6 5 5 5 5 5 5 5 4 4 4 4 4 4 4 4 5 5 5 5 5 5 6 6
Wind_Speed
5 4 5 6 8 9 9 10 10 9 9 9 8 8 8 7 7 6 6 4 4 4 3 3 4 5 5 5 5 5 5 5 5 5 5 5 5 5 5 5 5 5 7
6 6 7 7 8 9 10 10 10 10 10 9 8 8 8 7 7 7 6 5 4 3 3 3 3 3 4 5 4 4 4 5 5 5 5 6 6 5 5 5 4 4 7
7 7 8 8 9 9 10 10 10 11 10 10 9 8 8 7 7 6 6 6 4 3 3 3 3 3 3 4 4 4 4 5 5 5 6 5 5 5 5 5 4 5 7
7 6 7 8 9 9 10 10 10 10 10 10 10 9 8 8 7 6 6 6 6 5 4 3 3 3 2 2 3 4 4 5 5 6 6 4 4 5 5 5 5 6 7
7 7 8 8 9 9 9 9 9 9 9 9 9 9 9 8 7 7 6 6 6 5 5 4 3 3 2 2 2 3 3 4 5 6 5 4 4 5 5 5 5 6 6
7 7 9 8 9 9 9 9 9 9 9 9 9 9 8 8 8 7 7 6 6 5 5 4 4 2 2 2 2 2 2 2 5 6 5 4 4 4 5 5 6 6 7
7 7 9 9 9 9 9 9 9 9 9 8 8 8 8 7 8 7 7 6 6 5 5 4 4 3 2 1 1 1 2 3 5 5 5 4 3 4 5 6 6 7 7
7 7 8 9 9 9 9 9 9 9 9 9 8 8 8 8 8 7 7 7 6 5 5 5 4 3 3 2 0 1 2 3 5 5 5 5 4 5 6 6 7 7 8
6 6 6 6 7 8 8 8 8 8 8 8 8 8 8 8 8 8 7 7 6 5 4 4 4 3 2 2 1 0 1 3 5 4 5 4 4 6 7 7 7 8 8
5 5 5 5 5 5 5 7 7 7 7 7 7 7 7 6 6 6 6 7 6 5 4 3 3 3 3 2 1 1 1 4 5 5 4 4 3 6 7 8 8 8 8
5 4 4 4 4 3 3 4 5 5 5 5 5 5 4 4 4 4 6 6 6 5 4 3 3 2 2 1 1 1 2 4 5 4 4 3 4 6 7 8 8 8 8
6 4 3 3 3 3 2 2 2 2 3 3 3 3 3 3 3 3 4 4 5 5 4 3 3 2 2 2 1 1 2 4 4 4 4 3 5 7 8 8 8 8 8
6 4 3 3 2 2 2 1 1 2 2 2 3 3 2 2 2 3 3 3 3 4 4 3 2 2 2 2 2 3 3 4 3 4 4 3 6 7 7 8 8 8 8
6 5 4 3 3 2 1 1 1 1 1 1 2 2 2 2 2 3 3 3 4 3 4 3 2 3 3 3 4 4 4 4 4 4 4 4 7 8 9 9 9 9 9
7 6 5 4 3 2 2 1 1 0 0 1 1 1 2 2 2 3 3 3 4 4 4 4 3 3 4 4 4 4 5 5 5 6 5 5 8 9 10 10 11 11 11
8 7 5 5 4 3 2 2 1 0 0 0 1 1 2 2 2 3 3 3 4 4 5 5 4 4 4 4 5 5 6 6 6 7 7 7 8 10 11 12 12 12 12
8 7 6 5 4 4 3 2 1 1 1 1 1 1 2 2 3 3 3 4 4 5 6 5 5 4 4 4 5 6 6 7 7 8 8 7 8 10 11 13 13 13 13
8 7 6 4 5 4 3 3 2 1 1 1 1 2 2 3 3 3 4 4 5 5 5 4 4 4 4 5 5 6 6 6 8 8 8 8 8 8 10 12 13 13 14
8 7 7 6 5 5 4 3 2 2 2 2 2 2 2 3 4 4 4 4 5 5 5 5 5 5 6 6 6 6 7 7 8 8 8 9 9 9 9 10 12 14 14
8 7 7 6 5 5 4 3 2 2 2 2 2 2 3 3 4 4 4 5 5 5 5 5 6 6 6 6 7 7 7 7 7 8 8 8 8 9 10 10 10 11 14
8 8 7 7 6 4 4 4 3 3 3 3 3 3 4 4 4 4 4 5 5 5 6 7 6 6 6 5 6 7 7 8 8 7 7 8 8 9 9 10 9 9 9
9 8 8 7 6 5 4 4 4 4 4 4 3 4 4 4 5 4 5 5 5 6 7 7 6 5 6 5 5 6 6 6 5 7 7 8 9 8 9 10 10 10 10
9 8 7 7 6 6 5 3 3 3 3 4 4 4 4 5 5 5 6 6 6 6 6 7 7 7 6 6 5 5 5 5 7 6 7 7 8 8 9 9 10 10 11
9 8 7 7 6 6 5 5 5 5 5 5 5 4 5 5 5 5 6 7 7 6 7 7 7 7 7 7 6 6 8 7 6 6 6 7 8 9 10 9 10 10 11
8 7 6 6 6 5 6 6 6 6 5 5 5 6 6 5 5 6 6 6 7 6 7 7 7 7 7 8 7 7 8 8 10 9 11 10 9 9 9 10 10 10 10
7 6 6 6 6 6 6 6 7 7 7 6 6 6 6 5 5 6 7 7 7 7 7 7 8 9 8 9 8 8 8 8 8 9 11 12 11 10 10 9 10 9 9
Wind_Direction
122 105 69 76 74 70 70 68 69 67 67 68 67 67 70 73 75 74 76 89 104 117 118 128 137 138 140 140 139 150 156 151 150 152 152 149 146 146 147 148 161 160 140
124 112 90 82 79 73 70 70 68 66 65 65 65 64 65 66 66 67 66 72 85 99 113 123 125 138 142 145 146 152 160 164 165 163 166 166 161 158 156 159 185 155 151
123 116 107 87 80 75 71 69 66 64 63 62 61 61 61 60 59 59 60 61 69 82 95 99 104 114 133 145 155 160 168 169 170 172 189 190 168 165 170 168 174 172 173
121 116 102 91 84 77 71 69 67 64 61 60 58 56 57 56 54 52 54 54 55 67 79 85 91 88 97 129 147 163 181 178 172 188 206 203 187 168 183 185 184 183 184
121 113 101 96 87 79 72 69 68 65 62 59 56 54 54 53 52 50 49 50 49 58 65 70 78 87 85 111 142 155 173 183 186 210 219 213 203 176 197 198 196 199 198
121 112 104 94 88 80 73 69 67 65 62 59 55 52 50 48 47 46 44 47 47 50 56 57 58 76 89 99 135 152 162 170 202 217 218 216 212 187 204 208 206 210 211
119 108 106 92 88 82 75 70 66 63 60 57 53 49 46 43 42 41 39 39 40 41 39 42 46 57 64 105 173 174 173 194 227 225 222 219 218 199 213 219 221 218 215
121 111 105 93 86 82 77 72 68 63 59 56 52 49 45 41 39 36 36 35 32 34 34 33 36 41 39 38 93 186 207 217 235 233 230 229 221 217 221 223 224 224 221
123 116 109 105 98 89 81 74 69 65 61 58 53 48 44 41 38 35 32 28 27 25 24 20 23 22 26 23 25 118 203 237 239 236 237 240 229 227 229 228 228 228 228
130 125 120 112 102 99 93 81 73 69 64 59 53 48 43 41 35 30 24 21 19 12 10 7 1 1 2 360 4 3 240 237 238 239 242 250 246 243 239 238 233 231 232
148 143 136 124 110 98 92 91 83 77 67 61 55 46 34 27 23 23 22 16 11 3 355 343 338 324 319 295 319 344 235 238 245 247 251 265 251 252 249 246 239 238 235
171 164 155 143 127 113 100 99 83 70 61 48 39 33 28 22 14 4 16 10 359 347 334 328 308 288 290 282 247 226 249 255 250 249 256 259 254 257 257 253 244 240 237
179 171 165 161 150 137 120 105 81 66 58 47 36 30 24 14 0 353 350 349 337 329 326 318 301 307 313 308 284 266 275 267 259 256 258 249 256 258 257 258 252 246 242
186 183 178 173 170 161 150 132 116 85 58 46 31 11 11 13 358 351 347 339 334 330 324 313 307 309 300 292 280 271 269 270 269 265 259 248 258 262 260 258 259 256 250
196 193 192 189 183 175 169 173 153 105 59 45 17 6 359 356 340 336 333 330 326 325 318 310 303 302 298 297 286 270 269 271 274 269 264 250 257 262 263 261 259 256 252
201 198 195 196 192 186 191 194 195 192 214 327 357 341 337 339 330 322 319 318 318 320 315 307 297 294 290 291 288 276 266 267 266 268 267 256 251 256 261 263 260 256 252
202 197 194 195 194 195 198 203 206 211 235 270 305 299 308 315 315 311 309 309 313 314 310 304 297 291 286 285 282 280 269 263 262 262 263 261 255 251 255 261 262 261 256
199 195 191 191 194 197 201 208 209 217 234 259 279 285 291 299 303 303 300 302 308 309 308 302 296 290 286 283 280 280 275 267 261 260 258 258 259 259 257 259 262 263 263
199 194 192 193 196 200 205 210 216 226 240 256 265 279 288 292 293 293 295 299 301 300 301 299 302 293 288 284 279 278 276 270 263 263 257 258 257 260 264 260 257 260 263
200 197 197 198 202 204 207 216 224 238 247 255 265 273 279 281 284 287 287 291 295 291 294 296 295 294 288 286 284 279 276 273 265 261 257 261 261 259 263 266 263 259 257
199 200 200 203 203 203 209 220 232 243 253 257 264 272 274 276 279 280 284 289 288 286 288 293 291 291 293 291 287 287 282 268 261 262 261 266 267 266 264 265 268 267 264
201 203 204 207 206 210 218 229 238 247 258 262 266 268 270 272 274 274 276 281 284 285 285 288 287 283 287 285 283 289 286 278 258 263 261 262 266 266 263 265 268 266 267
202 204 205 207 211 216 222 226 234 248 256 256 261 265 266 270 269 267 271 276 278 278 279 281 277 275 280 284 274 269 277 278 301 271 264 263 265 269 269 267 265 267 264
203 202 204 205 211 216 218 223 229 243 254 263 266 267 269 271 272 269 269 270 272 273 274 275 272 268 267 271 273 262 262 276 281 284 272 269 276 274 274 273 269 263 261
197 197 199 202 209 214 220 226 236 246 255 261 264 266 268 269 268 268 269 268 269 270 271 272 270 266 262 262 266 269 267 268 267 272 280 281 280 276 277 277 274 266 259
191 194 200 203 214 219 225 232 238 247 253 258 263 268 271 273 272 271 269 265 267 269 271 270 267 262 260 259 260 262 263 264 266 269 276 280 283 284 281 277 272 268 262
Height
1511 1512 1512 1513 1514 1515 1515 1515 1515 1516 1516 1516 1516 1517 1517 1517 1517 1517 1517 1517 1517 1518 1518 1518 1518 1518 1518 1518 1519 1519 1519 1519 1519 1519 1518 1518 1518 1518 1518 1518 1518 1518 1518
1510 1512 1512 1513 1514 1514 1515 1515 1515 1515 1516 1516 1516 1516 1516 1516 1516 1516 1516 1516 1517 1517 1517 1517 1517 1517 1518 1518 1518 1518 1518 1518 1518 1518 1518 1518 1518 1518 1518 1518 1518 1518 1518
1510 1512 1512 1513 1514 1514 1514 1515 1515 1515 1515 1515 1515 1515 1515 1515 1515 1516 1516 1516 1516 1516 1516 1516 1516 1517 1517 1517 1517 1517 1517 1517 1517 1518 1518 1518 1518 1517 1518 1517 1517 1517 1517
1510 1512 1512 1513 1514 1514 1514 1514 1514 1514 1514 1515 1515 1515 1515 1514 1515 1515 1515 1515 1515 1515 1515 1515 1515 1515 1516 1516 1516 1516 1516 1516 1517 1517 1518 1518 1518 1517 1517 1517 1517 1517 1517
1510 1511 1512 1513 1513 1514 1514 1514 1514 1514 1514 1514 1513 1513 1513 1513 1513 1513 1513 1513 1513 1514 1514 1514 1513 1514 1514 1514 1514 1515 1515 1515 1515 1516 1516 1516 1516 1516 1516 1516 1516 1516 1516
1510 1511 1511 1512 1513 1513 1513 1513 1513 1513 1513 1512 1512 1512 1512 1512 1512 1512 1512 1512 1512 1512 1512 1512 1512 1512 1512 1513 1513 1513 1513 1513 1513 1514 1514 1514 1514 1514 1514 1514 1514 1514 1515
1510 1511 1511 1512 1512 1512 1512 1512 1512 1512 1512 1511 1511 1511 1511 1510 1510 1510 1510 1510 1510 1510 1510 1510 1510 1510 1511 1511 1511 1511 1511 1512 1512 1512 1512 1512 1512 1512 1512 1512 1513 1513 1513
1510 1510 1511 1511 1511 1511 1511 1511 1511 1510 1510 1510 1510 1509 1509 1509 1509 1509 1508 1508 1508 1508 1508 1508 1508 1508 1508 1508 1509 1509 1509 1509 1510 1510 1510 1510 1510 1510 1510 1510 1510 1511 1511
1509 1510 1510 1510 1510 1510 1510 1510 1509 1509 1509 1508 1508 1508 1507 1507 1507 1506 1506 1506 1506 1506 1506 1506 1506 1506 1506 1506 1506 1506 1507 1507 1507 1507 1507 1507 1507 1507 1508 1508 1508 1508 1508
1508 1508 1509 1509 1509 1509 1509 1508 1508 1508 1507 1507 1506 1506 1505 1505 1505 1504 1504 1504 1504 1503 1503 1503 1503 1503 1503 1503 1503 1504 1504 1504 1505 1504 1504 1504 1504 1505 1505 1505 1505 1505 1506
1507 1507 1508 1508 1508 1508 1507 1507 1507 1506 1506 1505 1505 1504 1504 1503 1502 1502 1502 1501 1501 1501 1501 1500 1500 1500 1500 1500 1500 1501 1501 1501 1501 1501 1501 1501 1501 1501 1502 1502 1502 1502 1503
1505 1506 1506 1506 1506 1506 1506 1506 1505 1505 1504 1503 1503 1502 1502 1501 1500 1500 1499 1499 1499 1498 1498 1498 1497 1498 1497 1497 1497 1497 1497 1497 1498 1498 1497 1497 1498 1498 1498 1498 1498 1499 1499
1504 1504 1504 1505 1505 1505 1504 1504 1504 1503 1502 1502 1501 1500 1500 1499 1498 1498 1497 1496 1496 1496 1495 1495 1494 1494 1494 1493 1493 1493 1493 1494 1494 1494 1494 1493 1494 1494 1494 1494 1494 1495 1495
1501 1502 1502 1503 1503 1503 1503 1502 1502 1501 1501 1500 1499 1498 1498 1497 1496 1496 1495 1494 1493 1493 1492 1492 1491 1490 1490 1490 1490 1489 1489 1489 1490 1490 1489 1489 1490 1490 1490 1490 1490 1490 1490
1499 1499 1500 1500 1501 1501 1501 1501 1500 1500 1499 1498 1497 1497 1496 1495 1494 1493 1492 1492 1491 1490 1489 1488 1488 1487 1486 1486 1486 1486 1485 1485 1485 1485 1485 1485 1485 1485 1485 1485 1485 1485 1485
1496 1497 1498 1498 1498 1499 1499 1499 1498 1498 1497 1496 1496 1495 1494 1493 1492 1491 1490 1489 1488 1487 1486 1485 1484 1483 1483 1482 1482 1481 1481 1481 1480 1481 1480 1480 1480 1480 1480 1480 1480 1481 1480
1493 1494 1495 1495 1496 1496 1497 1496 1496 1496 1495 1494 1493 1492 1491 1491 1490 1489 1487 1486 1485 1484 1483 1482 1481 1480 1479 1478 1478 1477 1477 1476 1476 1475 1476 1475 1475 1475 1475 1475 1475 1475 1475
1490 1491 1492 1493 1494 1494 1494 1494 1494 1494 1493 1492 1491 1490 1489 1488 1487 1486 1485 1484 1483 1481 1480 1479 1478 1477 1475 1474 1473 1473 1472 1471 1471 1471 1470 1470 1470 1470 1470 1469 1470 1470 1470
1487 1488 1489 1490 1491 1491 1492 1491 1491 1491 1490 1490 1489 1488 1487 1486 1484 1483 1482 1481 1480 1478 1477 1476 1474 1473 1472 1470 1469 1468 1467 1466 1466 1466 1465 1465 1465 1464 1464 1464 1464 1464 1464
1484 1485 1486 1487 1488 1489 1489 1489 1489 1488 1488 1487 1486 1485 1484 1483 1481 1480 1479 1478 1476 1475 1474 1472 1471 1469 1468 1467 1465 1464 1462 1461 1461 1460 1460 1460 1459 1459 1459 1459 1458 1458 1458
1480 1481 1483 1484 1485 1485 1485 1485 1485 1485 1485 1484 1483 1482 1481 1480 1478 1477 1476 1475 1473 1472 1470 1469 1467 1466 1464 1463 1461 1458 1457 1457 1455 1455 1454 1454 1454 1453 1453 1453 1452 1452 1452
1476 1477 1479 1480 1481 1481 1482 1482 1482 1482 1481 1480 1479 1478 1477 1476 1475 1474 1472 1471 1470 1468 1467 1465 1464 1462 1460 1460 1458 1456 1454 1453 1451 1450 1450 1449 1449 1448 1448 1448 1447 1446 1446
1472 1473 1474 1476 1477 1478 1478 1478 1478 1478 1477 1477 1476 1474 1473 1472 1471 1470 1469 1467 1466 1464 1462 1461 1460 1458 1457 1456 1455 1455 1453 1449 1447 1445 1445 1444 1444 1443 1442 1442 1441 1440 1440
1467 1469 1471 1472 1473 1474 1474 1474 1474 1474 1473 1472 1472 1471 1470 1469 1467 1466 1464 1463 1461 1460 1458 1457 1456 1454 1453 1452 1451 1451 1450 1448 1446 1441 1440 1439 1439 1438 1437 1436 1435 1434 1434
1464 1465 1467 1469 1469 1470 1470 1470 1470 1470 1469 1469 1468 1467 1465 1464 1463 1461 1460 1458 1457 1455 1453 1452 1451 1449 1448 1447 1447 1446 1445 1444 1442 1440 1435 1434 1433 1432 1431 1430 1429 1428 1427
1460 1461 1463 1464 1465 1466 1466 1466 1466 1466 1465 1464 1463 1462 1461 1459 1458 1457 1455 1454 1452 1450 1449 1447 1446 1445 1443 1442 1441 1440 1440 1439 1438 1436 1432 1429 1427 1426 1425 1424 1423 1422 1421